Location: Unspecified
(0.0000°N, 0.0000°E)
Time: 11:20:39
(UTC+00:00)

A-11 Canister half - Pass Details

Date: 27 November 2019
Orbit: 1526 x 1683 km, 47.3° (Epoch: 13 December)

Event Time Altitude Azimuth Distance (km) Brightness Sun altitude
Rises 20:17:44 0° 285° (WNW) 4,689 12.2 -34.6°
Reaches altitude 10° 20:22:01 10° 268° (W) 3,695 11.7 -35.6°
Maximum altitude 20:28:01 19° 227° (SW) 3,045 11.1 -36.9°
Drops below altitude 10° 20:34:04 10° 185° (S) 3,697 11.3 -38.2°
Sets 20:38:26 0° 168° (SSE) 4,693 11.7 -39.2°
